Home   Weather   Pasadena   Past weeks

Flag for USA Past Weather in Pasadena, California, USA — Yesterday and Last 2 Weeks

Now
72 °F

Clear.


Feels Like: 76 °F
Forecast: 57 / 83 °F
Wind: 3 mph from North

Location: Bob Hope Airport

Current Time: Apr 30, 2017 at 9:38:45 pm

Latest Report: Apr 30, 2017 at 8:53 pm


Visibility: 10 mi

Pressure: 29.95 "Hg

Humidity: 25%

Dew Point: 34 °F

Location of PasadenaLocation

Past Weather in Pasadena — Graph

°F

Pasadena Temperature Yesterday

Maximum temperature yesterday: 83 °F (at 1:53 pm)
Minimum temperature yesterday: 64 °F (at 11:53 pm)
Average temperature yesterday: 74 °F

High & Low Weather Summary for the Past Weeks

 TemperatureHumidityPressure
High92 °F (Apr 21, 2:53 pm)90% (Apr 18, 10:53 pm)30.12 "Hg (Apr 18, 10:53 pm)
Low54 °F (Apr 16, 6:53 am)6% (Apr 29, 11:53 am)29.68 "Hg (Apr 27, 6:53 pm)
Average69 °F40%29.90 "Hg
* Reported Apr 15 7:53 pm — Apr 30 7:53 pm, Pasadena, Weather by CustomWeather, © 2017

Note: Actual official high and low records may vary slightly from our data, if they occured in-between our weather recording intervals... More about our weather records

Advertising

Pasadena Weather History for the Previous 24 Hours

Scroll right to see more
 ConditionsComfort  
Time TempWeatherWind HumidityBarometerVisibility
7:53 pm
Sun, Apr 30
74 °FClear.5 mph26%29.95 "Hg10 mi
6:53 pm79 °FSunny.8 mph12%29.95 "Hg10 mi
5:53 pm80 °FSunny.8 mph11%29.95 "Hg10 mi
4:53 pm82 °FSunny.10 mph11%29.95 "Hg10 mi
3:53 pm83 °FSunny.13 mph10%29.96 "Hg10 mi
2:53 pm84 °FSunny.12 mph9%29.98 "Hg10 mi
1:53 pm85 °FSunny.9 mph9%29.99 "Hg10 mi
12:53 pm84 °FSunny.7 mph8%30.01 "Hg10 mi
11:53 am84 °FSunny.9 mph10%30.03 "Hg10 mi
10:53 am79 °FSunny.No wind14%30.05 "Hg10 mi
9:53 am74 °FSunny.6 mph15%30.05 "Hg10 mi
8:53 am69 °FSunny.5 mph19%30.05 "Hg10 mi
7:53 am64 °FSunny.No wind24%30.05 "Hg10 mi
6:53 am60 °FSunny.No wind22%30.03 "Hg10 mi
5:53 am58 °FClear.No wind26%30.01 "Hg10 mi
4:53 am58 °FClear.No wind27%30.01 "Hg10 mi
3:53 am58 °FClear.3 mph26%30.03 "Hg10 mi
2:53 am60 °FClear.No wind24%30.03 "Hg10 mi
1:53 am61 °FClear.No wind22%30.03 "Hg10 mi
12:53 am64 °FClear.3 mph26%30.02 "Hg10 mi
11:53 pm
Sat, Apr 29
64 °FClear.7 mph23%30.02 "Hg10 mi
10:53 pm68 °FClear.3 mph21%30.02 "Hg10 mi
9:53 pm69 °FClear.5 mph20%30.01 "Hg10 mi
Weather by CustomWeather, © 2017

See weather overviewHow to use our weather pages